EHI
0 0 0 0 0 0 0 0 0 0 0 0 0 0 0 0 0 0 0 0 0 0 0 0 0 0 0 0 0 0 0 0 0 0 0 0 0 0 0 0 0 0 0 0
0 0 0 0 0 0 0 0 0 0 0 0 0 0 0 0 0 0 0 0 0 0 0 0 0 0 0 0 0 0 0 0 0 0 0 0 0 0 0 0 0 0 0 0
0 0 0 0 0 0 0 0 0 0 0 0 0 0 0 0 0 0 0 0 0 0 0 0 0 0 0 0 0 0 0 0 0 0 0 0 0 0 0 0 0 0 0 0
0 0 0 0 0 0 0 0 0 0 0 0 0 0 0 0 0 0 0 0 0 0 0 0 0 0 0 0 0 0 0 0 0 0 0 0 0 0 0 0 0 0 0 0
0 0 0 0 0 0 0 0 0 0 0 0 0 0 0 0 0 0 0 0 0 0 0 0 0 0 0 0 0 0 0 0 0 0 0 0 0 0 0 0 0 0 0 0
0 0 0 0 0 0 0 0 0 0 0 0 0 0 0 0 0 0 0 0 0 0 0 0 0 0 0 0 0 0 0 0 0 0 0 0 0 0 0 0 0 0 0 0
0 0 0 0 0 0 0 0 0 0 0 0 0 0 0 0 0 0 0 0 0 0 0 0 0 0 0 0 0 0 0 0 0 0 0 0 0 0 0 0 0 0 0 0
0 0 0 0 0 0 0 0 0 0 0 0 0 0 0 0 0 0 0 0 0 0 0 0 0 0 0 0 0 0 0 0 0 0 0 0 0 0 0 0 0 0 0 0
0 0 0 0 0 0 0 0 0 0 0 0 0 0 0 0 0 0 0 0 0 0 0 0 0 0 0 0 0 0 0 0 0 0 0 0 0 0 0 0 0 0 0 0
0 0 0 0 0 0 0 0 0 0 0 0 0 0 0 0 0 0 0 0 0 0 0 0 0 0 0 0 0 0 0 0 0 0 0 0 0 0 0 0 0 0 0 0
0 0 0 0 0 0 0 0 0 0 0 0 0 0 0 0 0 0 0 0 0 0 0 0 0 0 0 0 0 0 0 0 0 0 0 0 0 0 0 0 0 0 0 0
0 0 0 0 0 0 0 0 0 0 0 0 0 0 0 0 0 0 0 0 0 0 0 0 0 0 0 0 0 0 0 0 0 0 0 0 0 0 0 0 0 0 0 0
0 0 0 0 0 0 0 0 0 0 0 0 0 0 0 0 0 0 0 0 0 0 0 0 0 0 0 0 0 0 0 0 0 0 0 0 0 0 0 0 0 0 0 0
0 0 0 0 0 0 0 0 0 0 0 0 0 0 0 0 0 0 0 0 0 0 0 0 0 0 0 0 0 0 0 0 0 0 0 0 0 0 0 0 0 0 0 0
0 0 0 0 0 0 0 0 0 0 0 0 0 0 0 0 0 0 0 0 0 0 0 0 0 0 0 0 0 0 0 0 0 0 0 0 0 0 0 0 0 0 0 0
0 0 0 0 0 0 0 0 0 0 0 0 0 0 0 0 0 0 0 0 0 0 0 0 0 0 0 0 0 0 0 0 0 0 0 0 0 0 0 0 0 0 0 0
0 0 0 0 0 0 0 0 0 0 0 0 0 0 0 0 0 0 0 0 0 0 0 0 0 0 0 0 0 0 0 0 0 0 0 0 0 0 0 0 0 0 0 0
0 0 0 0 0 0 0 0 0 0 0 0 0 0 0 0 0 0 0 0 0 0 0 0 0 0 0 0 0 0 0 0 0 0 0 0 0 0 0 0 0 0 0 0
0 0 0 0 0 0 0 0 0 0 0 0 0 0 0 0 0 0 0 0 0 0 0 0 0 0 0 0 0 0 0 0 0 0 0 0 0 0 0 0 0 0 0 0
0 0 0 0 0 0 0 0 0 0 0 0 0 0 0 0 0 0 0 0 0 0 0 0 0 0 0 0 0 0 0 0 0 0 0 0 0 0 0 0 0 0 0 0
0 0 0 0 0 0 0 0 0 0 0 0 0 0 0 0 0 0 0 0 0 0 0 0 0 0 0 0 0 0 0 0 0 0 0 0 0 0 0 0 0 0 0 0
0 0 0 0 0 0 0 0 0 0 0 0 0 0 0 0 0 0 0 0 0 0 0 0 0 0 0 0 0 0 0 0 0 0 0 0 0 0 0 0 0 0 0 0
0 0 0 0 0 0 0 0 0 0 0 0 0 0 0 0 0 0 0 0 0 0 0 0 0 0 0 0 0 0 0 0 0 0 0 0 0 0 0 0 0 0 0 0
0 0 0 0 0 0 0 0 0 0 0 0 0 0 0 0 0 0 0 0 0 0 0 0 0 0 0 0 0 0 0 0 0 0 0 0 0 0 0 0 0 0 0 0
0 0 0 0 0 0 0 0 0 0 0 0 0 0 0 0 0 0 0 0 0 0 0 0 0 0 0 0 0 0 0 0 0 0 0 0 0 0 0 0 0 0 0 0
0 0 0 0 0 0 0 0 0 0 0 0 0 0 0 0 0 0 0 0 0 0 0 0 0 0 0 0 0 0 0 0 0 0 0 0 0 0 0 0 0 0 0 0
0 0 0 0 0 0 0 0 0 0 0 0 0 0 0 0 0 0 0 0 0 0 0 0 0 0 0 0 0 0 0 0 0 0 0 0 0 0 0 0 0 0 0 0
Wind_Speed
11 6 12 15 19 22 24 23 18 17 19 18 15 14 12 10 9 7 7 6 7 8 9 10 12 12 13 13 13 13 13 13 13 12 11 10 10 9 8 8 8 8 7 7
12 9 10 10 16 21 23 22 23 21 20 16 15 13 13 12 11 10 9 8 7 8 9 11 12 12 12 13 13 13 13 13 11 11 10 10 10 9 9 8 8 8 8 8
12 10 7 14 18 19 17 18 18 22 21 14 13 12 12 11 10 10 9 7 7 8 9 9 10 11 12 12 12 12 12 11 11 11 11 10 9 9 9 9 8 8 8 9
7 10 14 10 8 16 19 19 19 17 15 14 14 11 9 10 10 10 8 7 6 6 6 7 8 9 9 10 11 11 11 11 11 11 10 10 10 10 9 8 8 8 8 9
8 11 11 6 7 12 15 16 18 20 19 14 6 5 9 8 8 8 7 5 4 3 4 5 7 8 9 9 9 10 10 10 10 10 10 10 10 10 8 8 8 8 8 9
8 10 12 8 9 9 9 11 11 16 16 12 8 7 6 3 4 4 3 2 2 3 4 5 6 8 9 9 9 10 10 9 9 9 9 9 9 8 7 7 7 7 8 9
11 10 10 4 8 13 11 7 6 11 13 11 11 8 2 4 3 2 2 3 4 4 4 5 6 8 8 8 8 7 7 7 7 8 8 8 7 7 6 6 7 8 9 9
12 11 10 9 13 14 7 3 5 7 9 10 9 5 3 3 3 4 4 4 5 5 5 4 5 6 7 6 5 5 6 6 6 7 6 5 6 6 6 6 7 8 8 9
12 11 2 14 12 8 4 5 6 6 7 8 8 7 6 5 5 4 4 4 4 5 5 4 4 5 5 4 5 5 6 6 5 5 5 5 6 6 6 6 6 6 7 8
7 8 6 10 7 6 6 5 5 5 6 8 8 8 7 6 5 5 5 5 5 5 5 4 4 3 4 4 5 5 5 4 4 4 5 5 5 5 5 6 6 7 7 8
9 5 4 8 11 10 7 5 5 5 6 8 8 7 7 6 6 5 5 4 4 5 5 5 4 4 4 4 5 4 4 3 3 4 4 5 5 6 7 7 7 8 8 8
10 10 9 9 10 11 10 9 9 8 6 6 7 7 7 6 6 6 6 5 5 5 5 4 4 4 4 4 4 4 3 3 3 3 4 4 5 6 8 11 13 15 16 15
5 6 5 3 5 9 9 8 8 8 7 7 6 6 7 6 6 6 6 6 5 5 5 4 4 3 3 3 3 3 3 3 3 4 4 5 5 6 7 8 12 15 17 19
4 5 4 5 5 6 6 6 6 6 5 5 6 6 7 6 6 6 5 5 5 5 4 4 4 3 2 3 3 3 4 4 4 4 5 5 6 7 7 8 9 9 11 15
6 4 4 6 6 7 7 8 8 7 6 6 6 7 7 7 6 5 5 5 5 5 4 3 3 2 2 2 3 4 4 4 4 5 5 6 6 7 7 9 10 10 9 10
7 5 6 7 8 8 8 8 8 8 7 7 7 6 6 6 6 6 5 5 5 4 3 3 2 1 1 2 3 4 4 6 6 5 6 6 6 7 8 9 10 10 10 10
9 9 8 8 8 8 7 7 7 8 8 8 7 8 8 8 7 5 4 3 3 2 2 2 2 1 2 3 4 4 4 5 7 7 6 7 7 8 8 9 10 10 11 11
8 8 10 10 10 10 8 7 7 8 7 7 8 8 7 7 6 5 4 3 2 1 1 0 1 1 2 3 4 4 4 5 5 6 7 7 8 8 9 10 11 13 11 11
6 7 7 8 8 9 9 8 8 8 8 8 8 7 6 5 5 4 3 2 1 1 0 1 2 3 3 4 5 4 5 6 7 7 7 10 10 9 10 10 11 12 12 11
8 9 10 10 9 9 10 9 9 9 8 8 8 7 6 5 4 3 2 1 0 1 1 2 3 3 4 4 6 5 6 7 8 8 8 9 10 10 10 11 12 12 12 12
11 12 12 12 11 10 10 10 10 9 8 7 7 7 5 4 3 2 1 0 1 1 2 4 3 4 4 6 8 6 7 8 8 9 9 10 10 11 11 11 12 11 12 12
11 12 13 13 13 11 9 8 9 9 8 7 7 6 5 4 2 1 0 1 2 3 4 3 4 6 8 10 7 7 8 9 9 9 9 10 10 11 11 12 12 12 12 12
11 12 13 12 12 12 11 9 8 8 8 7 5 4 3 2 1 0 1 1 2 5 5 5 7 11 13 9 7 8 9 9 9 10 10 10 11 11 12 13 12 12 12 12
13 13 12 12 12 12 11 8 7 7 7 5 4 3 2 1 1 1 2 4 6 8 6 7 12 13 13 7 7 8 9 9 10 10 11 11 11 11 12 12 12 12 12 14
13 12 12 11 10 8 8 8 7 6 5 4 4 3 2 2 1 3 4 5 7 8 6 8 12 13 10 7 8 9 9 10 11 11 11 11 12 12 12 12 12 13 13 13
11 10 9 9 7 6 5 4 4 4 3 3 2 2 2 2 3 3 4 5 8 9 8 7 8 9 8 8 9 10 10 11 12 11 12 12 13 13 13 13 16 13 13 13
11 9 8 7 6 5 4 4 4 3 3 2 2 2 3 3 4 4 6 6 6 7 7 7 8 8 8 9 10 10 10 11 11 11 12 12 12 12 13 15 13 13 13 13
Wind_Direction
226 188 179 198 203 205 214 225 237 245 247 250 253 257 265 269 274 274 263 238 223 219 213 206 203 202 200 198 193 188 190 193 194 190 187 186 186 188 190 196 202 206 214 223
205 192 193 211 213 210 218 228 238 250 257 257 262 263 264 264 264 263 261 248 232 223 218 211 205 202 198 197 191 189 193 195 190 187 186 188 190 190 192 200 206 210 220 228
204 189 197 232 219 212 215 222 228 238 247 251 249 248 252 258 258 257 260 256 237 225 218 213 207 200 198 194 186 190 194 192 188 188 190 192 190 193 199 205 210 218 227 234
171 172 219 233 204 212 221 228 226 238 249 248 250 257 262 256 255 257 255 252 242 227 217 210 201 194 189 183 183 187 192 192 190 190 192 192 195 201 206 210 216 225 232 239
182 207 232 228 198 198 209 232 227 232 242 246 243 257 253 238 237 247 253 249 240 222 205 190 184 178 173 175 179 186 193 194 191 191 192 194 201 207 210 215 223 231 238 244
184 206 225 220 181 180 191 240 223 218 229 226 189 227 240 181 202 223 226 208 186 165 163 167 166 165 168 174 181 191 194 194 190 192 195 201 206 210 213 219 230 237 244 249
198 216 237 183 146 156 194 227 186 200 210 200 199 221 145 134 151 160 151 142 141 142 145 149 154 162 170 176 189 189 184 185 188 193 200 205 208 212 216 223 234 243 251 255
203 214 222 156 158 189 207 135 165 183 189 190 198 192 172 167 159 152 142 136 138 135 128 131 150 164 170 179 173 166 172 180 188 196 197 203 210 216 222 228 240 249 257 263
199 214 170 167 190 201 167 173 179 178 181 179 182 191 186 182 170 157 148 138 138 134 127 130 151 167 168 158 153 162 172 183 189 195 200 207 215 221 228 233 242 252 258 264
202 218 199 196 207 204 198 198 188 182 173 176 182 182 179 172 166 159 152 146 142 142 139 138 145 156 152 147 157 166 177 184 190 202 212 218 221 225 231 236 245 252 259 265
211 203 193 217 216 210 199 196 183 176 177 183 178 176 175 170 166 160 150 146 149 151 146 143 145 147 143 150 161 172 182 192 204 216 225 232 235 237 241 243 245 251 259 264
208 195 193 205 205 199 192 195 191 178 170 174 179 171 163 160 157 153 150 148 148 148 146 145 148 148 148 158 170 178 193 208 219 229 238 245 253 259 244 248 257 258 262 265
191 171 187 170 171 181 192 195 184 180 172 163 164 161 154 148 147 146 146 152 156 153 151 150 155 158 162 169 183 201 218 229 237 243 249 255 260 266 274 265 256 260 262 266
169 145 157 175 168 165 159 148 142 138 140 143 144 144 141 136 138 146 152 153 148 145 149 155 163 171 173 186 203 223 237 241 249 253 257 260 263 267 272 278 282 276 268 268
198 195 162 145 135 133 134 135 134 137 136 133 137 141 143 144 145 144 137 135 138 142 151 163 178 185 181 204 224 238 246 250 255 261 262 263 266 269 271 273 275 280 281 276
169 151 144 147 149 147 148 152 150 151 148 143 140 138 136 132 127 124 128 139 148 158 170 187 209 211 204 225 242 251 254 258 266 268 268 267 267 269 271 274 276 278 278 281
160 170 175 175 169 163 163 163 156 149 143 141 137 131 128 126 123 124 128 135 140 154 180 208 233 244 240 247 257 264 266 264 266 268 266 268 270 271 272 273 275 276 277 279
195 188 181 174 169 161 152 144 139 136 135 134 130 131 135 138 138 136 132 127 124 131 186 237 282 281 271 271 274 274 271 269 268 270 272 272 274 273 273 273 275 277 280 281
159 147 145 144 146 142 139 136 133 128 125 130 131 129 126 124 124 127 132 141 160 216 315 350 302 289 282 280 285 277 273 274 274 274 275 277 278 275 274 275 277 279 281 282
128 122 120 119 120 124 126 125 124 120 120 124 122 118 115 114 117 121 123 131 295 304 306 301 297 290 288 284 285 277 276 277 278 280 279 278 278 279 278 278 279 280 280 280
125 121 118 116 111 108 115 121 120 117 116 118 118 118 115 110 110 118 131 179 359 340 309 298 296 293 292 291 289 282 281 281 281 282 281 281 281 281 280 280 280 280 279 279
119 118 116 115 111 104 100 104 107 109 108 104 103 107 109 107 99 76 344 278 302 313 309 296 294 295 299 299 290 286 284 283 282 282 281 280 280 281 280 281 280 280 279 279
111 111 110 109 108 105 97 93 96 100 100 100 101 102 99 89 53 332 318 321 311 309 307 296 299 302 305 302 291 287 285 284 283 281 280 280 279 279 280 280 279 279 279 278
105 103 103 104 105 102 96 90 88 88 89 87 83 78 73 53 7 346 314 308 311 310 302 299 303 306 308 299 292 288 286 284 283 282 281 280 279 278 278 278 279 278 278 278
101 102 103 103 98 96 99 100 94 90 85 80 69 51 30 3 327 319 315 310 311 311 304 303 306 308 305 294 290 287 285 282 282 283 281 281 281 281 280 279 279 278 278 277
95 92 88 85 88 93 96 94 89 82 74 67 47 24 4 345 324 312 308 306 305 306 304 301 301 301 294 291 289 288 286 287 287 284 282 283 282 281 280 279 279 277 276 275
89 88 87 82 74 72 75 77 76 64 48 34 3 345 337 330 322 318 313 308 307 305 302 299 298 296 294 292 291 289 287 286 285 284 283 282 282 281 281 281 279 277 276 275